(2013 BQ18) |
Classification: Apollo [NEO] SPK-ID: 3624753 |
[ hide orbit diagram ]
For accurate long-term ephemerides, please instead use our Horizons system.This orbit viewer was implemented using two-body methods, and hence should not be used for determining accurate long-term trajectories (over several years or decades) or planetary encounter circumstances.
Orbital Elements at Epoch 2456311.5 (2013-Jan-19.0) TDB
Reference: JPL 5 (heliocentric ecliptic J2000)
Element | Value | Uncertainty (1-sigma) | Units |
e | .1477634522110557 | 0.00043111 | |
a | 1.024921546181818 | 0.00069475 | au |
q | .8734756002724997 | 0.00015066 | au |
i | 26.4987599514467 | 0.06422 | deg |
node | 117.2704192513529 | 0.002261 | deg |
peri | 89.04265000382466 | 0.19457 | deg |
M | 288.4455632161266 | 0.23529 | deg |
tp | 2456386.830079956561 (2013-Apr-04.33007996) | 0.17112 | TDB |
period | 378.9957688615874 1.04 | 0.38536 0.001055 | d yr |
n | .9498786782801134 | 0.00096583 | deg/d |
Q | 1.176367492091136 | 0.00079741 | au |
|
| | Orbit Determination Parameters
Additional Information
|
[ show covariance matrix ]
Physical Parameter Table
Parameter |
Symbol |
Value |
Units |
Sigma |
Reference |
Notes |
absolute magnitude |
H |
25.3 |
|
n/a |
MPO250184 |
|
|
[ show close-approach data ]
|